{"data":{"norad_id":63425,"epoch":"2026-05-24T23:00:25.619040Z","epoch_age_seconds":89159,"freshness":"FRESH","line1":"1 63425U 25065AC  26144.95862985  .00017454  00000+0  64219-3 0  9992","line2":"2 63425  43.0020  36.3282 0001523 228.2085 131.8637 15.27583987 64502","mean_motion":15.27583987,"eccentricity":0.0001523,"inclination_deg":43.002,"raan_deg":36.3282,"arg_perigee_deg":228.2085,"mean_anomaly_deg":131.8637,"bstar":0.00064219,"rev_number":6450,"period_min":94.26650267708,"perigee_km":481.99220072911,"apogee_km":484.0821143775,"semimajor_km":6861.1741575533,"source":"CELESTRAK","updated_at":"2026-05-25T13:38:19.995837Z"}}